Terminal Aerodrome Forecast
Issued by NWS

Home | Current Version | Previous Version | Text Only | Print | Product List | Glossary On
Versions: 1 2 3 4 5 6 7 8 9 10 11 12 13 14 15 16 17 18 19 20 21 22 23 24
626
FTUS42 KCAE 092339
TAFCUB
TAF
KCUB 092339Z 1000/1024 27013G23KT P6SM SCT040 OVC080
      TEMPO 1000/1002 -SN
     FM100200 27010KT P6SM OVC080
     FM101100 27014G22KT P6SM SKC
     FM101500 27018G28KT P6SM SCT040=

USA.gov is the U.S. government's official web portal to all federal, state and local government web resources and services.